Regional Weather Roundup
Issued by NWS State College, PA

Home | Current Version | Previous Version | Graphics & Text | Print | Product List | Glossary Off
Versions: 1 2 3 4 5 6 7 8 9 10 11 12 13 14 15 16 17 18 19 20 21 22 23 24 25 26 27 28 29 30 31 32 33 34 35 36 37 38 39 40 41 42 43 44 45 46 47 48 49 50

000
ASUS41 KCTP 282203
RWRCTP

REGIONAL WEATHER ROUNDUP
NATIONAL WEATHER SERVICE STATE COLLEGE PA
600 PM EDT THU APR 28 2016

Note: "fair" indicates few or no clouds below 12,000 feet with no
significant weather and/or obstructions to visibility.

* = STATION THAT DOES NOT REPORT PRECIPITATION /E.G. RAIN...SNOW...ETC/
    THUNDER OR FOG.

PAZ002>004-007>009-013>016-020>023-029>032-282300-
WESTERN PENNSYLVANIA

CITY           SKY/WX    TMP DP  RH WIND       PRES   REMARKS
ERIE           LGT RAIN  45  40  82 NE9       29.97R
MEADVILLE      LGT RAIN  43  41  93 E6        29.93R
FRANKLIN*      CLOUDY    43  39  87 E9        29.94S
NEW CASTLE     CLOUDY    45  42  89 NE8       29.93R
BEAVER COUNTY  NOT AVBL
BUTLER*        CLOUDY    45  43  93 NE12      29.93R
PITTSBURGH INT DRZL/FOG  50  47  89 N6        29.89R VSB 1
PITTSBURGH     FOG       52  50  93 N6        29.88R VSB 1/4
INDIANA*       CLOUDY    46  45  93 E10       29.94S
LATROBE        CLOUDY    55  54  94 E7        29.89R
WASHINGTON CO* PTSUNNY   59  54  82 N3        29.88R
$$

PAZ004>006-010>012-017>019-024>028-033>037-041-042-045-046-049>053-282300-
CENTRAL PENNSYLVANIA

CITY           SKY/WX    TMP DP  RH WIND       PRES   REMARKS
BRADFORD       LGT RAIN  41  37  86 SE7       29.96R FOG
DUBOIS         LGT RAIN  40  38  93 E12       29.93R FOG
CLEARFIELD     LGT RAIN  41  39  93 NE7       29.97S FOG
JOHNSTOWN      CLOUDY    43  39  86 SE6       29.92R FOG
ALTOONA        CLOUDY    42  40  92 E6        29.97S FOG
STATE COLLEGE  RAIN      41  41 100 NE6       30.00R
WILLIAMSPORT   CLOUDY    47  40  76 S3        30.02S
SELINSGROVE    LGT RAIN  45  41  86 CALM      30.03F
FT INDIANTOWN  DRIZZLE   44  44  99 NE3       30.02F FOG
CAPITAL CITY   CLOUDY    46  42  86 E9        30.02F FOG
HARRISBURG     DRIZZLE   46  43  89 E6        30.01F FOG
YORK           CLOUDY    46  44  93 E7        30.00F FOG
$$

PAZ038>040-043-044-047-048-054-055-060>062-067>071-282300-
EASTERN PENNSYLVANIA

CITY           SKY/WX    TMP DP  RH WIND       PRES   REMARKS
SCRANTON       LGT RAIN  47  42  83 SW5       30.01R
MOUNT POCONO   LGT RAIN  45  36  70 SW8       29.99R
ALLENTOWN      LGT RAIN  47  41  80 CALM      30.04R
QUAKERTOWN*    CLOUDY    45  41  87 S3        30.05R
READING        LGT RAIN  45  43  93 NE3       30.03R FOG
LANCASTER      LGT RAIN  44  42  93 E9        30.03R FOG
COATESVILLE    CLOUDY    43  43 100 CALM      30.04R
POTTSTOWN      LGT RAIN  43  43 100 NE5       30.05R FOG
BLUE BELL      CLOUDY    41  41 100 E6        30.03S
DOYLESTOWN     LGT RAIN  41  40  96 VRB3      30.03S FOG
WILLOW GROVE   NOT AVBL
NORTH PHILA    LGT RAIN  45  41  86 NE9       30.06S FOG
PHILADELPHIA   CLOUDY    48  37  65 NE12      30.04S
$$




USA.gov is the U.S. government's official web portal to all federal, state and local government web resources and services.